Вернуться в каталог

CZ-6A DEB

АктивенSSO
NORAD 54480·DEBRIS·🇨🇳 China

Запущен Nov 11, 2022 с Taiyuan Satellite Launch Center

Loading…

Ближайшие Пролёты (ближайшие 24 часа)

TLE

СвежийSource: Space-Track

Эпоха: Sep 14, 2026, 13:09 UTC

1 54480U 22151HG  26257.54821626  .00000297  00000-0  10320-3 0  9995
2 54480  98.6049 293.3235 0130293 107.4193 254.1288 14.37986062201154

Отслеживайте CZ-6A DEB в реальном времени с AllMySat

Download on the App Store